Find Starlink 11514

NORAD ID: 62514 Int'l Des: 2025-004 Owner: SPXS Country: US Constellation: starlink operational
LEOCIRCULAR

实时位置

正在加载3D地球...

关于 Starlink 11514

正在加载描述...

即将过境

Passes for default location (London). Set your location on the main map for personalized predictions.

高度历史

Loading altitude history...

两行轨道根数

1 62514U 25004D 26125.94073599 .00228517 00000-0 17181-2 0 9996
2 62514 42.9994 85.5489 0002416 213.2865 146.7851 15.71084160 76217
Epoch: May 5, 2026 • Age: 10 hours

当前状态

高度 367.4 km
速度 7.69 km/s
星下点 -42.95°S, 10.97°W
发射日期 Jan 8, 2025
运行时间 1.3 years
类型 internet

技术详情

分类 Payload
质量 960.00 kg
干质量 910.00 kg
总质量 960.00 kg
长度 0.30 m
直径 4.10 m
跨度 29.00 m
形状 Box + pan
制造商 SPXS
平台类型 Starlink V2MD
阶段状态 In Orbit
所有者/国家 SPXS/US

Most Searched